When you browse on this site, cookies collect data to enhance your experience and personalize the content and advertising you see.
Visit our Privacy Policy to learn more. By continuing to use the site, you agree to this use of cookies and data.
  • In Sweden
  • List of Countries
  • For 7 days
  • Water Temperature
  • Weather Map
  • Weather Widgets
  • user-avatar
    Login

    Hourly Weather Kanev

    Today, 3 June, Wednesday

    Time Temperature Precipitation Wind Pressure Humidity
    00:00 +7°C° 0 mm 2 mps 740 mmHg 92%
    01:00 +6°C° 0 mm 2 mps 740 mmHg 92%
    02:00 +6°C° 0 mm 2 mps 740 mmHg 93%
    03:00 +6°C° 0 mm 2 mps 740 mmHg 93%
    04:00 +6°C° 0 mm 2 mps 740 mmHg 92%
    05:00 +6°C° 0 mm 2 mps 739 mmHg 92%
    06:00 +8°C° 0 mm 3 mps 740 mmHg 87%
    07:00 +10°C° 0 mm 3 mps 740 mmHg 81%
    08:00 +12°C° 0 mm 4 mps 740 mmHg 75%
    09:00 +14°C° 0 mm 4 mps 740 mmHg 71%
    10:00 +15°C° 0 mm 4 mps 740 mmHg 66%
    11:00 +17°C° 0 mm 4 mps 740 mmHg 61%
    12:00 +17°C° 0.2 mm 4 mps 740 mmHg 60%
    13:00 +18°C° 0.2 mm 4 mps 740 mmHg 60%
    14:00 +18°C° 0.2 mm 4 mps 740 mmHg 59%
    15:00 +18°C° 0.2 mm 3 mps 739 mmHg 61%
    16:00 +17°C° 0.2 mm 3 mps 739 mmHg 64%
    17:00 +17°C° 0.2 mm 3 mps 739 mmHg 66%
    18:00 +16°C° 0.1 mm 3 mps 739 mmHg 71%
    19:00 +14°C° 0.1 mm 2 mps 739 mmHg 76%
    20:00 +13°C° 0.1 mm 2 mps 739 mmHg 81%
    21:00 +12°C° 0 mm 2 mps 739 mmHg 84%
    22:00 +10°C° 0 mm 3 mps 739 mmHg 87%
    23:00 +10°C° 0 mm 3 mps 739 mmHg 89%

    Tomorrow, 4 June, Thursday

    Time Temperature Precipitation Wind Pressure Humidity
    00:00 +9°C° 0 mm 3 mps 739 mmHg 91%
    01:00 +9°C° 0 mm 3 mps 739 mmHg 93%
    02:00 +8°C° 0 mm 3 mps 739 mmHg 95%
    03:00 +8°C° 0 mm 3 mps 739 mmHg 94%
    04:00 +8°C° 0 mm 2 mps 739 mmHg 93%
    05:00 +8°C° 0 mm 2 mps 739 mmHg 93%
    06:00 +10°C° 0 mm 3 mps 739 mmHg 87%
    07:00 +12°C° 0 mm 3 mps 739 mmHg 82%
    08:00 +14°C° 0 mm 4 mps 740 mmHg 77%
    09:00 +15°C° 1.2 mm 5 mps 739 mmHg 75%
    10:00 +16°C° 1.2 mm 6 mps 739 mmHg 73%
    11:00 +19°C° 1.2 mm 6 mps 739 mmHg 71%
    12:00 +19°C° 1.2 mm 6 mps 739 mmHg 71%
    13:00 +19°C° 1.2 mm 6 mps 739 mmHg 71%
    14:00 +19°C° 1.2 mm 6 mps 739 mmHg 71%
    15:00 +19°C° 1 mm 6 mps 739 mmHg 73%
    16:00 +17°C° 1 mm 5 mps 739 mmHg 76%
    17:00 +17°C° 1 mm 5 mps 739 mmHg 78%
    18:00 +17°C° 0.4 mm 4 mps 739 mmHg 81%
    19:00 +14°C° 0.4 mm 4 mps 739 mmHg 84%
    20:00 +13°C° 0.4 mm 4 mps 739 mmHg 87%
    21:00 +13°C° 0 mm 4 mps 739 mmHg 89%
    22:00 +12°C° 0 mm 4 mps 740 mmHg 91%
    23:00 +11°C° 0 mm 4 mps 740 mmHg 93%

    Day after tomorrow, 5 June, Friday

    Time Temperature Precipitation Wind Pressure Humidity
    00:00 +11°C° 0 mm 4 mps 740 mmHg 93%
    01:00 +11°C° 0 mm 4 mps 740 mmHg 94%
    02:00 +12°C° 0 mm 5 mps 740 mmHg 94%
    03:00 +12°C° 0.3 mm 5 mps 740 mmHg 94%
    04:00 +11°C° 0.3 mm 6 mps 739 mmHg 94%
    05:00 +13°C° 0.3 mm 6 mps 739 mmHg 94%
    06:00 +13°C° 0 mm 6 mps 740 mmHg 93%
    07:00 +14°C° 0 mm 6 mps 740 mmHg 93%
    08:00 +14°C° 0 mm 6 mps 740 mmHg 92%
    09:00 +15°C° 0.3 mm 6 mps 740 mmHg 91%
    10:00 +16°C° 0.3 mm 5 mps 740 mmHg 89%
    11:00 +17°C° 0.3 mm 5 mps 740 mmHg 88%
    12:00 +20°C° 0.6 mm 5 mps 741 mmHg 81%
    13:00 +22°C° 0.6 mm 6 mps 741 mmHg 75%
    14:00 +24°C° 0.6 mm 6 mps 741 mmHg 68%
    15:00 +25°C° 0.2 mm 5 mps 741 mmHg 70%
    16:00 +25°C° 0.2 mm 4 mps 741 mmHg 73%
    17:00 +25°C° 0.2 mm 3 mps 741 mmHg 75%
    18:00 +24°C° 0.1 mm 3 mps 741 mmHg 78%
    19:00 +21°C° 0.1 mm 3 mps 741 mmHg 81%
    20:00 +19°C° 0.1 mm 3 mps 741 mmHg 85%
    21:00 +19°C° 0 mm 4 mps 742 mmHg 86%
    22:00 +18°C° 0 mm 4 mps 742 mmHg 87%
    23:00 +16°C° 0 mm 5 mps 742 mmHg 88%

    6 June, Saturday

    Time Temperature Precipitation Wind Pressure Humidity
    00:00 +16°C° 0 mm 5 mps 742 mmHg 90%
    01:00 +15°C° 0 mm 5 mps 742 mmHg 91%
    02:00 +14°C° 0 mm 5 mps 742 mmHg 93%
    03:00 +14°C° 0 mm 5 mps 742 mmHg 93%
    04:00 +14°C° 0 mm 5 mps 742 mmHg 93%
    05:00 +14°C° 0 mm 5 mps 742 mmHg 94%
    06:00 +16°C° 0 mm 5 mps 743 mmHg 90%
    07:00 +19°C° 0 mm 6 mps 743 mmHg 86%
    08:00 +20°C° 0 mm 6 mps 744 mmHg 82%
    09:00 +22°C° 0 mm 6 mps 744 mmHg 79%
    10:00 +23°C° 0 mm 6 mps 744 mmHg 76%
    11:00 +24°C° 0 mm 6 mps 745 mmHg 73%
    12:00 +26°C° 0 mm 5 mps 745 mmHg 71%
    13:00 +27°C° 0 mm 5 mps 745 mmHg 69%
    14:00 +27°C° 0 mm 5 mps 745 mmHg 67%
    15:00 +27°C° 0.1 mm 5 mps 745 mmHg 69%
    16:00 +27°C° 0.1 mm 4 mps 745 mmHg 71%
    17:00 +26°C° 0.1 mm 4 mps 745 mmHg 73%
    18:00 +25°C° 0.2 mm 3 mps 746 mmHg 77%
    19:00 +22°C° 0.2 mm 3 mps 746 mmHg 81%
    20:00 +21°C° 0.2 mm 2 mps 746 mmHg 84%
    21:00 +20°C° 0 mm 2 mps 747 mmHg 83%
    22:00 +19°C° 0 mm 2 mps 747 mmHg 83%
    23:00 +18°C° 0 mm 2 mps 747 mmHg 82%

    7 June, Sunday

    Time Temperature Precipitation Wind Pressure Humidity
    00:00 +17°C° 0 mm 2 mps 747 mmHg 84%
    01:00 +16°C° 0 mm 2 mps 747 mmHg 86%
    02:00 +16°C° 0 mm 2 mps 747 mmHg 89%
    03:00 +16°C° 0 mm 2 mps 748 mmHg 89%
    04:00 +16°C° 0 mm 2 mps 748 mmHg 89%
    05:00 +15°C° 0 mm 2 mps 748 mmHg 90%
    06:00 +17°C° 0 mm 2 mps 748 mmHg 85%
    07:00 +19°C° 0 mm 3 mps 748 mmHg 80%
    08:00 +21°C° 0 mm 3 mps 748 mmHg 75%
    09:00 +22°C° 0 mm 4 mps 749 mmHg 71%
    10:00 +25°C° 0 mm 4 mps 749 mmHg 66%
    11:00 +26°C° 0 mm 5 mps 749 mmHg 62%
    12:00 +27°C° 0 mm 5 mps 749 mmHg 61%
    13:00 +27°C° 0 mm 5 mps 748 mmHg 60%
    14:00 +27°C° 0 mm 5 mps 748 mmHg 59%
    15:00 +27°C° 0 mm 4 mps 748 mmHg 63%
    16:00 +27°C° 0 mm 4 mps 747 mmHg 67%
    17:00 +27°C° 0 mm 4 mps 747 mmHg 71%
    18:00 +25°C° 0 mm 4 mps 747 mmHg 75%
    19:00 +22°C° 0 mm 3 mps 747 mmHg 80%
    20:00 +21°C° 0 mm 3 mps 747 mmHg 84%
    21:00 +20°C° 0 mm 3 mps 747 mmHg 86%
    22:00 +20°C° 0 mm 3 mps 747 mmHg 88%
    23:00 +19°C° 0 mm 3 mps 747 mmHg 90%

    8 June, Monday

    Time Temperature Precipitation Wind Pressure Humidity
    00:00 +19°C° 0 mm 3 mps 747 mmHg 90%
    01:00 +18°C° 0 mm 3 mps 747 mmHg 91%
    02:00 +18°C° 0 mm 3 mps 747 mmHg 92%
    03:00 +18°C° 0 mm 3 mps 747 mmHg 92%
    04:00 +18°C° 0 mm 3 mps 747 mmHg 92%
    05:00 +18°C° 0 mm 3 mps 747 mmHg 92%
    06:00 +20°C° 0 mm 4 mps 747 mmHg 87%
    07:00 +21°C° 0 mm 5 mps 747 mmHg 82%
    08:00 +23°C° 0 mm 5 mps 747 mmHg 77%
    09:00 +24°C° 0 mm 6 mps 747 mmHg 73%
    10:00 +26°C° 0 mm 6 mps 747 mmHg 69%
    11:00 +27°C° 0 mm 6 mps 747 mmHg 66%
    12:00 +27°C° 0 mm 6 mps 747 mmHg 65%
    13:00 +28°C° 0 mm 6 mps 747 mmHg 64%
    14:00 +28°C° 0 mm 6 mps 747 mmHg 63%
    15:00 +28°C° 0 mm 5 mps 747 mmHg 65%
    16:00 +28°C° 0 mm 5 mps 747 mmHg 68%
    17:00 +27°C° 0 mm 4 mps 746 mmHg 70%
    18:00 +26°C° 0 mm 4 mps 746 mmHg 74%
    19:00 +23°C° 0 mm 4 mps 746 mmHg 78%
    20:00 +22°C° 0 mm 3 mps 747 mmHg 82%
    21:00 +21°C° 0 mm 3 mps 747 mmHg 84%
    22:00 +21°C° 0 mm 3 mps 747 mmHg 86%
    23:00 +20°C° 0 mm 3 mps 747 mmHg 88%
    Show more